Regional Weather Roundup
Issued by NWS

Home | Current Version | Previous Version | Text Only | Print | Product List | Glossary Off
Versions: 1 2 3 4 5 6 7 8 9 10 11 12 13 14 15 16 17 18 19 20 21 22 23 24 25 26 27 28 29 30 31 32 33 34 35 36 37 38 39 40 41 42 43 44 45 46 47 48 49 50

000
ASUS45 KCYS 010010
RWRWY

WYOMING REGIONAL WEATHER ROUNDUP
NATIONAL WEATHER SERVICE CHEYENNE WY
600 PM MDT TUE JUN 30 2015

NOTE:  "FAIR" INDICATES FEW OR NO CLOUDS BELOW 12,000 FEET
WITH NO SIGNIFICANT WEATHER AND/OR OBSTRUCTIONS TO VISIBILITY.

WYZ001-010100-
YELLOWSTONE NATIONAL PARK

CITY           SKY/WX    TMP DP  RH WIND       PRES   REMARKS
LK YELLOWSTONE   N/A     76  47  35 VRB6      30.31F
6HR MIN TEMP:  67; 6HR MAX TEMP:  80;

W YELLOWSTONE  NOT AVBL

$$
WYZ002>013-054>058-071-098>099-010100-
NORTHERN WYOMING

CITY           SKY/WX    TMP DP  RH WIND       PRES   REMARKS
JACKSON        SUNNY     72  55  56 CALM      30.22S
CODY           FAIR      82  52  34 NE9       30.06S
GREYBULL       FAIR      96  40  14 NW16G22   29.93F HX  92
6HR MIN TEMP:  90; 6HR MAX TEMP:  97;

WORLAND        FAIR      81  59  47 SW12      29.99F
6HR MIN TEMP:  74; 6HR MAX TEMP:  97; 6HR PCP: TRACE;

SHERIDAN       FAIR      90  51  26 NW12      29.95S
6HR MIN TEMP:  81; 6HR MAX TEMP:  92;

BUFFALO        FAIR      84  51  31 NW10      30.05S
6HR MIN TEMP:  73; 6HR MAX TEMP:  85;

GILLETTE       FAIR      88  54  31 NW13      29.97S
6HR MIN TEMP:  79; 6HR MAX TEMP:  89;

HULETT         FAIR      84  54  34 N8        29.97F
NEWCASTLE      FAIR      84  50  30 NW9       29.96S

$$
WYZ014>020-022>026-101>103-010100-
CENTRAL WYOMING

CITY           SKY/WX    TMP DP  RH WIND       PRES   REMARKS
BIG PINEY      FAIR      87  40  19 NW18G25   30.22F
6HR MIN TEMP:  82; 6HR MAX TEMP:  91;

PINEDALE       FAIR      81  43  26 NW23      30.23S
DUBOIS         FAIR      73  41  31 NW14G21   30.25R
LANDER         FAIR      85  53  33 N3        30.08R
6HR MIN TEMP:  83; 6HR MAX TEMP:  92; 6HR PCP:  0.01;

RIVERTON       FAIR      81  49  32 NE20      30.08S
6HR MIN TEMP:  73; 6HR MAX TEMP:  91; 6HR PCP:  0.01;

CASPER         LGT RAIN  69  59  70 N26G41    30.10R
6HR MIN TEMP:  69; 6HR MAX TEMP:  92; 6HR PCP: TRACE;

DOUGLAS        FAIR      86  52  30 N12       30.04R
6HR MIN TEMP:  85; 6HR MAX TEMP:  92;


$$
WYZ021-027>030-104>119-010100-
SOUTHERN WYOMING

CITY           SKY/WX    TMP DP  RH WIND       PRES   REMARKS
EVANSTON       FAIR      88  41  19 NW14      30.23F
6HR MIN TEMP:  84; 6HR MAX TEMP:  91;

KEMMERER       FAIR      84  41  21 NW17G25   30.25S
FORT BRIDGER   CLEAR     91  37  15 NW16G22   30.24F
ROCK SPRINGS   PTSUNNY   76  49  38 VRB3G22   30.21R THUNDER
6HR MIN TEMP:  76; 6HR MAX TEMP:  91; 6HR PCP: TRACE;

DIXON          MOCLDY    86  40  20 SW23G36   30.18R
RAWLINS        FAIR      82  54  37 VRB3      30.15F
6HR MIN TEMP:  66; 6HR MAX TEMP:  93; 6HR PCP:  0.06;

SARATOGA         N/A     70  52  52 N25       30.19R
LARAMIE        FAIR      65  52  62 E8        30.23F
6HR MIN TEMP:  63; 6HR MAX TEMP:  86; 6HR PCP:  0.01;

CHEYENNE       FAIR      81  51  35 SW13      30.12F
6HR MIN TEMP:  76; 6HR MAX TEMP:  90; 6HR PCP: TRACE;

TORRINGTON     FAIR      93  53  25 N20G25    29.92F HX  90
6HR MIN TEMP:  85; 6HR MAX TEMP:  97;

PINE BLUFFS    MOCLDY    86  46  25 CALM      30.04S

$$



USA.gov is the U.S. government's official web portal to all federal, state and local government web resources and services.